| time (UTC) | temp F | wind direction | speed MPH | gust MPH | rain 1hr in | rain 24hr in | rain mn in | humidity % | barometer mb |
| 20260906010050 | 62 | 276 | 2.0 | 5.0 | 0.00 | 0.28 | 0.08 | 80 | 1016.0 |
| 20260906004604 | 62 | 281 | 2.0 | 3.0 | 0.00 | 0.73 | 0.08 | 80 | 1016.0 |
| 20260906003100 | 62 | 286 | 0.0 | 4.0 | 0.00 | 0.73 | 0.08 | 80 | 1016.2 |
| 20260906001547 | 62 | 284 | 1.0 | 5.0 | 0.00 | 0.73 | 0.08 | 80 | 1016.3 |
| 20260906000104 | 62 | 283 | 2.0 | 4.0 | 0.00 | 0.73 | 0.08 | 79 | 1016.4 |
| 20260905234556 | 63 | 277 | 2.0 | 2.0 | 0.00 | 0.74 | 0.08 | 79 | 1016.4 |
| 20260905233053 | 64 | 0 | 1.0 | 2.0 | 0.00 | 0.74 | 0.08 | 78 | 1016.3 |
| 20260905231548 | 64 | 266 | 1.0 | 7.0 | 0.00 | 0.74 | 0.08 | 80 | 1016.4 |
| 20260905230052 | 63 | 311 | 2.0 | 4.0 | 0.00 | 0.74 | 0.08 | 81 | 1016.3 |
| 20260905224602 | 62 | 0 | 0.0 | 1.0 | 0.00 | 0.74 | 0.08 | 84 | 1016.7 |
| 20260905223049 | 62 | 0 | 0.0 | 2.0 | 0.00 | 0.74 | 0.08 | 85 | 1016.8 |
| 20260905221553 | 62 | 0 | 0.0 | 0.0 | 0.00 | 0.74 | 0.08 | 85 | 1016.9 |
| 20260905220049 | 62 | 0 | 0.0 | 0.0 | 0.00 | 0.74 | 0.08 | 84 | 1017.1 |
| 20260905214557 | 61 | 0 | 0.0 | 1.0 | 0.00 | 0.74 | 0.08 | 82 | 1017.2 |
| 20260905213053 | 62 | 0 | 0.0 | 1.0 | 0.00 | 0.74 | 0.08 | 82 | 1017.2 |
| 20260905211550 | 62 | 0 | 0.0 | 1.0 | 0.00 | 0.74 | 0.08 | 86 | 1017.4 |
| 20260905210048 | 61 | 0 | 0.0 | 0.0 | 0.00 | 0.74 | 0.08 | 87 | 1017.4 |
| 20260905204545 | 61 | 0 | 0.0 | 1.0 | 0.01 | 0.78 | 0.08 | 88 | 1017.4 |
| 20260905203051 | 60 | 0 | 0.0 | 0.0 | 0.01 | 0.78 | 0.08 | 88 | 1017.5 |
| 20260905201549 | 61 | 0 | 0.0 | 1.0 | 0.01 | 0.78 | 0.08 | 86 | 1017.5 |
| 20260905200055 | 61 | 0 | 0.0 | 2.0 | 0.00 | 0.77 | 0.07 | 85 | 1017.6 |
| 20260905194545 | 60 | 0 | 0.0 | 2.0 | 0.00 | 0.95 | 0.07 | 83 | 1017.5 |
| 20260905193051 | 60 | 140 | 1.0 | 3.0 | 0.00 | 0.95 | 0.07 | 85 | 1017.6 |
| 20260905191548 | 60 | 0 | 0.0 | 1.0 | 0.00 | 0.95 | 0.07 | 90 | 1017.6 |
| 20260905190054 | 59 | 141 | 0.0 | 2.0 | 0.00 | 0.95 | 0.07 | 92 | 1017.7 |
| 20260905184601 | 59 | 0 | 0.0 | 2.0 | 0.00 | 0.95 | 0.07 | 93 | 1017.7 |
| 20260905183052 | 58 | 108 | 0.0 | 2.0 | 0.00 | 0.95 | 0.07 | 96 | 1017.7 |
| 20260905181553 | 57 | 0 | 0.0 | 4.0 | 0.00 | 0.95 | 0.07 | 96 | 1017.5 |
| 20260905180053 | 57 | 0 | 0.0 | 3.0 | 0.00 | 0.95 | 0.07 | 97 | 1017.6 |
| 20260905174550 | 56 | 0 | 0.0 | 2.0 | 0.00 | 0.95 | 0.07 | 96 | 1017.6 |
| 20260905173046 | 56 | 104 | 0.0 | 4.0 | 0.00 | 0.95 | 0.07 | 96 | 1017.5 |
| 20260905171544 | 56 | 32 | 0.0 | 5.0 | 0.00 | 0.95 | 0.07 | 96 | 1017.4 |
| 20260905170049 | 56 | 0 | 0.0 | 5.0 | 0.00 | 0.95 | 0.07 | 96 | 1017.3 |
| 20260905164552 | 56 | 72 | 1.0 | 5.0 | 0.00 | 0.95 | 0.07 | 96 | 1017.4 |
| 20260905163049 | 57 | 83 | 1.0 | 3.0 | 0.00 | 0.95 | 0.07 | 97 | 1017.3 |
| 20260905161550 | 57 | 100 | 0.0 | 2.0 | 0.00 | 0.95 | 0.07 | 97 | 1017.4 |
| 20260905160048 | 56 | 0 | 0.0 | 1.0 | 0.00 | 0.95 | 0.07 | 97 | 1017.4 |
| 20260905154549 | 56 | 99 | 0.0 | 1.0 | 0.00 | 0.95 | 0.07 | 97 | 1017.4 |
| 20260905153057 | 56 | 0 | 0.0 | 1.0 | 0.00 | 0.95 | 0.07 | 97 | 1017.5 |
| 20260905151553 | 55 | 0 | 0.0 | 2.0 | 0.00 | 0.95 | 0.07 | 97 | 1017.4 |
| 20260905150048 | 55 | 0 | 0.0 | 2.0 | 0.00 | 0.95 | 0.07 | 97 | 1017.4 |
| 20260905144550 | 55 | 0 | 0.0 | 2.0 | 0.00 | 0.95 | 0.07 | 97 | 1017.3 |
| 20260905143045 | 55 | 95 | 0.0 | 2.0 | 0.00 | 0.95 | 0.07 | 97 | 1017.4 |
| 20260905141555 | 55 | 0 | 0.0 | 2.0 | 0.00 | 0.95 | 0.07 | 97 | 1017.2 |
| 20260905140047 | 55 | 0 | 0.0 | 3.0 | 0.00 | 0.95 | 0.07 | 97 | 1017.2 |
| 20260905134544 | 55 | 116 | 0.0 | 2.0 | 0.00 | 0.96 | 0.07 | 97 | 1017.2 |
| 20260905133049 | 55 | 0 | 0.0 | 1.0 | 0.00 | 0.96 | 0.07 | 97 | 1017.0 |
| 20260905131603 | 55 | 0 | 0.0 | 1.0 | 0.00 | 0.96 | 0.07 | 97 | 1017.0 |
| 20260905130052 | 55 | 0 | 0.0 | 1.0 | 0.00 | 0.96 | 0.07 | 97 | 1017.0 |
| 20260905124551 | 55 | 0 | 0.0 | 1.0 | 0.00 | 0.96 | 0.07 | 97 | 1017.0 |
| 20260905123049 | 54 | 23 | 0.0 | 2.0 | 0.00 | 0.96 | 0.07 | 97 | 1017.0 |
| 20260905121550 | 55 | 46 | 0.0 | 1.0 | 0.00 | 0.96 | 0.07 | 97 | 1016.8 |
| 20260905120050 | 55 | 0 | 0.0 | 1.0 | 0.00 | 0.96 | 0.07 | 97 | 1016.7 |
| 20260905114548 | 55 | 0 | 0.0 | 1.0 | 0.00 | 0.96 | 0.07 | 97 | 1016.8 |
| 20260905113047 | 55 | 0 | 0.0 | 1.0 | 0.00 | 0.96 | 0.07 | 97 | 1016.7 |
| 20260905111602 | 55 | 0 | 0.0 | 1.0 | 0.00 | 0.96 | 0.07 | 97 | 1016.7 |
| 20260905110055 | 55 | 0 | 0.0 | 1.0 | 0.00 | 0.96 | 0.07 | 97 | 1016.7 |
| 20260905104548 | 55 | 0 | 0.0 | 2.0 | 0.00 | 0.96 | 0.07 | 97 | 1016.7 |
| 20260905103050 | 55 | 0 | 0.0 | 1.0 | 0.00 | 0.96 | 0.07 | 97 | 1016.7 |
| 20260905101549 | 55 | 0 | 0.0 | 1.0 | 0.00 | 0.96 | 0.07 | 97 | 1016.7 |
| 20260905100049 | 55 | 0 | 0.0 | 1.0 | 0.00 | 0.96 | 0.07 | 97 | 1016.6 |
| 20260905094549 | 55 | 0 | 0.0 | 0.0 | 0.00 | 1.00 | 0.07 | 97 | 1016.7 |
| 20260905093052 | 55 | 0 | 0.0 | 0.0 | 0.00 | 1.00 | 0.07 | 97 | 1016.7 |
| 20260905091550 | 55 | 0 | 0.0 | 1.0 | 0.03 | 1.00 | 0.07 | 97 | 1016.6 |
| 20260905090159 | 55 | 0 | 0.0 | 1.0 | 0.05 | 1.00 | 0.07 | 97 | 1016.3 |
| 20260905084547 | 55 | 0 | 0.0 | 1.0 | 0.06 | 1.09 | 0.07 | 97 | 1016.4 |
| 20260905083051 | 55 | 0 | 0.0 | 2.0 | 0.06 | 1.08 | 0.06 | 97 | 1016.3 |
| 20260905081551 | 55 | 102 | 0.0 | 1.0 | 0.03 | 1.05 | 0.03 | 97 | 1016.3 |
| 20260905080048 | 55 | 0 | 0.0 | 0.0 | 0.01 | 1.03 | 0.01 | 97 | 1016.1 |
| 20260905074555 | 55 | 0 | 0.0 | 1.0 | 0.00 | 1.02 | 0.00 | 97 | 1016.1 |
| 20260905073102 | 55 | 0 | 0.0 | 0.0 | 0.00 | 1.02 | 0.00 | 97 | 1016.1 |
| 20260905071549 | 55 | 0 | 0.0 | 0.0 | 0.00 | 1.02 | 0.00 | 97 | 1016.0 |
| 20260905070049 | 55 | 0 | 0.0 | 0.0 | 0.00 | 1.02 | 0.00 | 97 | 1016.0 |
| 20260905064546 | 55 | 0 | 0.0 | 0.0 | 0.00 | 1.02 | 1.02 | 97 | 1015.9 |
| 20260905063051 | 55 | 0 | 0.0 | 0.0 | 0.00 | 1.02 | 1.02 | 97 | 1015.9 |
| 20260905061549 | 55 | 0 | 0.0 | 0.0 | 0.00 | 1.02 | 1.02 | 97 | 1015.9 |
| 20260905060048 | 55 | 0 | 0.0 | 0.0 | 0.00 | 1.02 | 1.02 | 97 | 1015.9 |
| 20260905054554 | 55 | 0 | 0.0 | 0.0 | 0.00 | 1.03 | 1.02 | 96 | 1015.8 |
| 20260905053127 | 55 | 0 | 0.0 | 0.0 | 0.00 | 1.03 | 1.02 | 96 | 1015.9 |
| 20260905051550 | 55 | 0 | 0.0 | 0.0 | 0.00 | 1.03 | 1.02 | 96 | 1015.8 |
| 20260905050049 | 55 | 0 | 0.0 | 0.0 | 0.00 | 1.03 | 1.02 | 96 | 1015.7 |
| 20260905044553 | 55 | 0 | 0.0 | 1.0 | 0.00 | 1.13 | 1.02 | 96 | 1015.8 |
| 20260905043051 | 55 | 0 | 0.0 | 0.0 | 0.00 | 1.13 | 1.02 | 96 | 1015.7 |
| 20260905041549 | 56 | 0 | 0.0 | 0.0 | 0.00 | 1.13 | 1.02 | 96 | 1015.6 |
| 20260905040050 | 56 | 0 | 0.0 | 1.0 | 0.00 | 1.13 | 1.02 | 96 | 1015.5 |
| 20260905034553 | 56 | 0 | 0.0 | 1.0 | 0.00 | 1.14 | 1.02 | 96 | 1015.2 |
| 20260905033059 | 56 | 0 | 0.0 | 0.0 | 0.00 | 1.14 | 1.02 | 96 | 1015.1 |
| 20260905031551 | 56 | 0 | 0.0 | 0.0 | 0.00 | 1.14 | 1.02 | 96 | 1015.1 |
| 20260905030100 | 56 | 0 | 0.0 | 0.0 | 0.00 | 1.14 | 1.02 | 96 | 1014.9 |
| 20260905024600 | 57 | 0 | 0.0 | 0.0 | 0.00 | 1.16 | 1.02 | 96 | 1014.9 |
| 20260905023052 | 56 | 0 | 0.0 | 0.0 | 0.00 | 1.16 | 1.02 | 95 | 1014.8 |
| 20260905021605 | 57 | 0 | 0.0 | 0.0 | 0.09 | 1.16 | 1.02 | 95 | 1014.7 |
| 20260905020105 | 56 | 0 | 0.0 | 0.0 | 0.18 | 1.16 | 1.02 | 95 | 1014.7 |
| 20260905014552 | 56 | 0 | 0.0 | 0.0 | 0.53 | 1.18 | 1.02 | 95 | 1014.7 |
| 20260905013051 | 56 | 0 | 0.0 | 1.0 | 0.60 | 1.18 | 1.01 | 95 | 1014.6 |
| 20260905011550 | 56 | 0 | 0.0 | 1.0 | 0.55 | 1.09 | 0.92 | 94 | 1014.6 |